Regional Weather Roundup
Issued by NWS

Home | Current Version | Previous Version | Text Only | Print | Product List | Glossary On
Versions: 1 2 3 4 5 6 7 8 9 10 11 12 13 14 15 16 17 18 19 20 21 22 23 24 25 26 27 28 29 30 31 32 33 34 35 36 37 38 39 40 41 42 43 44 45 46 47 48 49 50
000
ASUS43 KDTX 181210
RWRMI
MICHIGAN HOURLY REGIONAL WEATHER ROUNDUP
NATIONAL WEATHER SERVICE DETROIT/PONTIAC MI
800 AM EDT FRI APR 18 2014

NOTE: "FAIR" INDICATES FEW OR NO CLOUDS BELOW 12,000 FEET WITH NO
SIGNIFICANT WEATHER AND/OR OBSTRUCTION TO VISIBILITY.

MIZ047>049-052>055-059>063-066>070-074>076-081>083-181300-
SOUTHEAST LOWER MICHIGAN

CITY           SKY/WX    TMP DP  RH WIND       PRES   REMARKS
ADRIAN         CLOUDY    46  41  82 CALM      30.28R
6HR MIN TEMP:  46; 6HR MAX TEMP:  52;

ALMA           PTSUNNY   41  36  81 N5        30.29R
ANN ARBOR      CLOUDY    46  41  82 CALM      30.28R
BAD AXE        CLOUDY    40  33  76 NE8       30.30R
6HR MIN TEMP:  40; 6HR MAX TEMP:  46;

DETROIT CITY   CLOUDY    50  38  63 CALM      30.29R
6HR MIN TEMP:  47; 6HR MAX TEMP:  53;

DETROIT        CLOUDY    51  38  60 CALM      30.29R
6HR MIN TEMP:  47; 6HR MAX TEMP:  51;

FLINT          LGT RAIN  47  44  90 N3        30.27S FOG
6HR MIN TEMP:  46; 6HR MAX TEMP:  52; 6HR PCP:  0.08;

GROSSE ILE     CLOUDY    46  39  76 CALM      30.27S
HILLSDALE      DRIZZLE   46  43  88 CALM      30.27R
6HR MIN TEMP:  46; 6HR MAX TEMP:  54;

HOWELL         DRIZZLE   45  44  97 CALM      30.27R
6HR MIN TEMP:  44; 6HR MAX TEMP:  51;


CITY           SKY/WX    TMP DP  RH WIND       PRES   REMARKS
JACKSON        CLOUDY    46  44  93 CALM      30.26S FOG
6HR MIN TEMP:  45; 6HR MAX TEMP:  50; 6HR PCP:  0.03;

LAMBERTVILLE   CLOUDY    45  39  81 CALM      30.28R
LANSING        CLOUDY    45  40  82 CALM      30.28R HAZE
6HR MIN TEMP:  44; 6HR MAX TEMP:  50; 6HR PCP:  0.01;

LAPEER         NOT AVBL
MASON          RAIN      45  44  97 CALM      30.27R
MONROE         CLOUDY    48  39  71 CALM      30.27R
MT. CLEMENS    LGT RAIN  44  42  89 CALM      30.27S FOG
6HR MIN TEMP:  42; 6HR MAX TEMP:  44; 6HR PCP: TRACE;

PONTIAC        LGT RAIN  47  44  90 CALM      30.26S FOG
6HR MIN TEMP:  46; 6HR MAX TEMP:  51; 6HR PCP:  0.04;

PORT HOPE        N/A     41  32  70 CALM      30.29R
6HR MIN TEMP:  41; 6HR MAX TEMP:  49;

PORT HURON     RAIN      41  39  93 NW3       30.30R
TRI CITIES     CLOUDY    44  35  70 N7        30.30R
6HR MIN TEMP:  44; 6HR MAX TEMP:  49;

YPSILANTI      CLOUDY    50  40  68 SE3       30.28R
6HR MIN TEMP:  48; 6HR MAX TEMP:  54;

$$
MIZ043>046-050>051-056>058-064>065-071>073-077>080-181300-
SOUTHWEST LOWER MICHIGAN

CITY           SKY/WX    TMP DP  RH WIND       PRES   REMARKS
BATTLE CREEK   CLOUDY    46  43  89 CALM      30.28R FOG
6HR MIN TEMP:  45; 6HR MAX TEMP:  50; 6HR PCP:  0.04;

BENTON HARBOR  MOSUNNY   40  36  86 N3        30.29R
6HR MIN TEMP:  39; 6HR MAX TEMP:  46;

BIG RAPIDS     CLOUDY    38  38  99 N3        30.28R
6HR MIN TEMP:  37; 6HR MAX TEMP:  40;

COLDWATER      LGT RAIN  46  43  90 CALM      30.27R
6HR MIN TEMP:  45; 6HR MAX TEMP:  49;

HOLLAND        PTSUNNY   41  36  82 CALM      30.29R
6HR MIN TEMP:  39; 6HR MAX TEMP:  46;

GRAND RAPIDS   MOSUNNY   45  37  73 CALM      30.28R
6HR MIN TEMP:  43; 6HR MAX TEMP:  48;

KALAMAZOO      PTSUNNY   47  43  86 CALM      30.27R FOG
6HR MIN TEMP:  45; 6HR MAX TEMP:  50; 6HR PCP:  0.01;

MARSHALL       LGT RAIN  44  43  98 CALM      30.27R
MUSKEGON       PTSUNNY   41  36  82 N7        30.30R
6HR MIN TEMP:  36; 6HR MAX TEMP:  43;

$$
MIZ016>042-181300-
NORTHERN LOWER MICHIGAN

CITY           SKY/WX    TMP DP  RH WIND       PRES   REMARKS
ALPENA         PTSUNNY   33  30  88 NW5       30.29R
6HR MIN TEMP:  33; 6HR MAX TEMP:  40;

BEAVER ISLAND  CLOUDY    32  28  85 W6        30.32R
6HR MIN TEMP:  29; 6HR MAX TEMP:  34;

BELLAIRE       CLOUDY    32  31  96 CALM      30.31R FOG
6HR MIN TEMP:  28; 6HR MAX TEMP:  33;

CADILLAC       CLOUDY    34  32  92 NW6       30.27R
CHARLEVOIX     CLOUDY    34  32  94 N6        30.34R
6HR MIN TEMP:  29; 6HR MAX TEMP:  35;

FRANKFORT      CLOUDY    34  30  83 N7        30.33R
GAYLORD        CLOUDY    31  30  96 W3        30.27R
6HR MIN TEMP:  28; 6HR MAX TEMP:  34;

GRAYLING       PTSUNNY   32  32  99 CALM      30.28R FOG
6HR MIN TEMP:  28; 6HR MAX TEMP:  34;

HARBOR SPRINGS CLOUDY    33  32  96 CALM      30.30R
HOUGHTON LAKE  SUNNY     32  30  92 CALM      30.28R FOG
6HR MIN TEMP:  29; 6HR MAX TEMP:  38;

MANISTEE       CLOUDY    36  28  75 N7        30.33R
OSCODA         CLOUDY    38  31  77 NW3       30.28R
PELLSTON       CLOUDY    34  29  82 NW9       30.30R
6HR MIN TEMP:  27; 6HR MAX TEMP:  34;

TRAVERSE CITY  CLOUDY    36  30  79 NW8       30.31R
6HR MIN TEMP:  30; 6HR MAX TEMP:  38;

$$
MIZ007>008-015-181300-
EASTERN UPPER MICHIGAN

CITY           SKY/WX    TMP DP  RH WIND       PRES   REMARKS
KINROSS        PTSUNNY   30  30 100 NW8       30.27R
6HR MIN TEMP:  28; 6HR MAX TEMP:  34;

MACKINAC ISLAN CLOUDY    32  30  95 W5        30.29R
6HR MIN TEMP:  30; 6HR MAX TEMP:  32;

NEWBERRY       CLOUDY    31  26  82 NW9G18    30.28R
S. S. MARIE    CLOUDY    32  28  85 W7        30.27R
6HR MIN TEMP:  31; 6HR MAX TEMP:  34;

$$
MIZ004>006-011>014-085-181300-
CENTRAL UPPER MICHIGAN

CITY           SKY/WX    TMP DP  RH WIND       PRES   REMARKS
MANISTIQUE     CLOUDY    32  27  82 NW7       30.31R
6HR MIN TEMP:  31; 6HR MAX TEMP:  35;

ESCANABA       CLOUDY    34  25  69 NW5       30.33R
6HR MIN TEMP:  32; 6HR MAX TEMP:  36;

MENOMINEE      CLOUDY    34  25  69 N5        30.34R
6HR MIN TEMP:  30; 6HR MAX TEMP:  36;

SAWYER-GWINN   MOCLDY    27  25  93 W3        30.29R
$$
MIZ001>003-009>011-084-181300-
WESTERN UPPER MICHIGAN

CITY           SKY/WX    TMP DP  RH WIND       PRES   REMARKS
IRON MOUNTAIN  CLOUDY    32  24  72 NW7       30.30R
6HR MIN TEMP:  31; 6HR MAX TEMP:  33;

HOUGHTON       CLOUDY    29  25  85 NW9       30.30R
6HR MIN TEMP:  28; 6HR MAX TEMP:  31;

COPPER HARBOR    N/A     30  27  88 N12       30.30R
6HR MIN TEMP:  29; 6HR MAX TEMP:  33;

IRONWOOD       PTCLDY    23  19  86 SW6       30.31R
6HR MIN TEMP:  18; 6HR MAX TEMP:  30;

$$

ABBREVIATIONS USED IN REMARKS
   TC - TEMPERATURE IN CELSIUS
  WCI - WIND CHILL INDEX
   HX - HEAT INDEX
  VSB - VISIBILITY




USA.gov is the U.S. government's official web portal to all federal, state and local government web resources and services.